Tracking 28125 objects as of 4-Oct-2023
HD Live streaming from Space Station
objects crossing your sky now

NOAA 16 DEB

Track NOAA 16 DEB now!
10-day predictions


NORAD ID: 41259
Int'l Code: 2000-055FK
Perigee: 634.5 km
Apogee: 715.0 km
Inclination: 98.8 °
Period: 98.1 minutes
Semi major axis: 7045 km
RCS: Unknown
Launch date: September 21, 2000
Source: United States (US)
Launch site: AIR FORCE WESTERN TEST RANGE (AFWTR)

Note: This is SATELLITE DEBRIS
Your satellite tracking list
Your tracking list is empty




NASA's NSSDC Master Catalog

Two Line Element Set (TLE):
1 41259U 00055FK  23276.27505599  .00054799  00000-0  92780-2 0  9995
2 41259  98.8281 110.3697 0057160 230.7803 128.8317 14.67950527409232
Source of the keplerian elements: AFSPC